Le nostre stazioni meteo in Italia

Pubblicità
Il mio iltempo24.it
Lampedusa, Italia (16490): Temperatura & dewpoint: 16.11.2019 08:00:00 - 22.11.2019 08:00:00 (CET)Lampedusa, Italia (16490): velocità del vento: 16.11.2019 08:00:00 - 22.11.2019 08:00:00 (CET)Lampedusa, Italia (16490): direzione del vento: 16.11.2019 08:00:00 - 22.11.2019 08:00:00 (CET)Lampedusa, Italia (16490): reduced air pressure: 16.11.2019 08:00:00 - 22.11.2019 08:00:00 (CET)Lampedusa, Italia (16490): visibility: 16.11.2019 08:00:00 - 22.11.2019 08:00:00 (CET)Lampedusa, Italia (16490): precipitazioni: 16.11.2019 08:00:00 - 22.11.2019 08:00:00 (CET)
Data & Tempo tt [°C] td [°C] ff [km/h] ff [kn] dd ppp [hPa] vv [km] rr [mm]
22.11.2019 08:00:00 - - - - - - - -
22.11.2019 07:00:00 17,1 10,2 16 9 OSO 1015,5 10 -
22.11.2019 06:00:00 17,0 9,0 16 9 OSO - 10 -
22.11.2019 05:00:00 17,0 9,0 16 9 OSO - 10 -
22.11.2019 04:00:00 17,5 8,7 21 11 SO 1015,1 10 0,0
22.11.2019 03:00:00 18,0 9,0 21 11 OSO - 10 -
22.11.2019 02:00:00 18,0 8,0 24 13 OSO - 10 -
22.11.2019 01:00:00 17,7 9,0 21 11 OSO 1015,3 10 -
22.11.2019 00:00:00 18,0 10,0 24 13 OSO - 10 -
21.11.2019 23:00:00 18,0 11,0 21 11 OSO - 10 -
21.11.2019 22:00:00 17,9 10,3 16 9 OSO 1015,6 - 0,0
21.11.2019 21:00:00 18,0 10,0 21 11 OSO - 10 -
21.11.2019 20:00:00 18,0 10,0 21 11 OSO - 10 -
21.11.2019 19:00:00 17,7 9,6 21 11 SO 1014,7 10 -
21.11.2019 18:00:00 17,0 9,0 24 13 SO - 10 -
21.11.2019 17:00:00 18,0 9,0 26 14 SO - 10 -
21.11.2019 16:00:00 17,9 8,9 26 14 SO 1014,6 10 0,0
21.11.2019 15:00:00 19,0 9,0 26 14 SO - 10 -
21.11.2019 14:00:00 19,0 10,0 24 13 SO - 10 -
21.11.2019 13:00:00 19,0 9,0 24 13 SO - 10 -
21.11.2019 12:00:00 19,0 10,0 28 15 SO - 10 -
21.11.2019 11:00:00 18,0 8,0 26 14 SO - 10 -
21.11.2019 10:00:00 18,2 9,6 21 11 SO 1016,4 10 0,0
21.11.2019 09:00:00 18,0 9,0 21 11 OSO - 10 -
21.11.2019 08:00:00 17,0 9,0 16 9 OSO - 10 -
21.11.2019 07:00:00 17,3 9,1 15 8 OSO 1015,5 10 -
21.11.2019 06:00:00 17,0 10,0 13 7 SSE - 10 -
21.11.2019 05:00:00 17,0 9,0 15 8 S - 10 -
21.11.2019 04:00:00 16,8 8,0 13 7 S 1015,9 10 0,0
21.11.2019 03:00:00 17,0 7,0 13 7 SSO - 10 -
21.11.2019 02:00:00 17,0 6,0 13 7 OSO - 10 -
21.11.2019 01:00:00 17,0 7,0 15 8 SSO - 10 -
21.11.2019 00:00:00 16,0 7,0 11 6 SO - 10 -
20.11.2019 23:00:00 16,0 7,0 11 6 SSO - 10 -
20.11.2019 22:00:00 16,0 6,8 5 3 SSO 1017,6 10 0,0
20.11.2019 21:00:00 15,0 7,0 4 2 - - 10 -
20.11.2019 20:00:00 15,0 7,0 5 3 O - 10 -
20.11.2019 19:00:00 15,3 7,1 4 2 O 1017,7 10 -
20.11.2019 18:00:00 16,0 7,0 5 3 OSO - 10 -
20.11.2019 17:00:00 17,0 7,0 5 3 O - 10 -
20.11.2019 16:00:00 17,5 7,6 8 4 OSO 1017,4 10 0,0
20.11.2019 15:00:00 18,0 8,0 9 5 SO - 10 -
20.11.2019 14:00:00 18,0 8,0 11 6 SO - 10 -
20.11.2019 13:00:00 18,0 7,6 11 6 OSO 1017,9 10 -
20.11.2019 12:00:00 18,0 8,0 9 5 NO - 10 -
20.11.2019 11:00:00 18,0 8,0 8 4 NNO - 10 -
20.11.2019 10:00:00 17,0 8,0 9 5 NO - 10 -
20.11.2019 09:00:00 17,0 8,0 13 7 NO - 10 -
20.11.2019 08:00:00 15,0 8,0 9 5 ONO - 10 -
20.11.2019 07:00:00 15,0 9,0 11 6 NO - 10 -
20.11.2019 06:00:00 16,0 9,0 15 8 NO - 10 -
20.11.2019 05:00:00 15,0 9,0 11 6 ONO - 10 -
20.11.2019 04:00:00 15,1 8,6 11 6 NO 1016,8 10 0,0
20.11.2019 03:00:00 15,0 8,0 15 8 ONO - 10 -
20.11.2019 02:00:00 15,0 9,0 15 8 ONO - 10 -
20.11.2019 01:00:00 15,9 8,8 16 9 ONO 1016,4 10 -
20.11.2019 00:00:00 16,0 9,0 16 9 ONO - 10 -
19.11.2019 23:00:00 16,0 9,0 21 11 NO - 10 -
19.11.2019 22:00:00 16,2 8,9 22 12 ONO 1016,3 10 0,0
19.11.2019 21:00:00 16,0 8,0 15 8 ONO - 10 -
19.11.2019 20:00:00 16,0 8,0 11 6 ONO - 10 -
19.11.2019 19:00:00 16,0 8,0 13 7 ONO - 10 -
19.11.2019 18:00:00 16,0 8,0 13 7 ONO - 10 -
19.11.2019 17:00:00 17,0 8,0 18 10 ONO - 10 -
19.11.2019 16:00:00 17,7 8,0 15 8 ONO 1014,0 10 0,0
19.11.2019 15:00:00 19,0 8,0 18 10 O - 10 -
19.11.2019 14:00:00 19,0 9,0 16 9 O - 10 -
19.11.2019 13:00:00 18,8 8,6 11 6 O 1014,0 10 -
19.11.2019 12:00:00 18,0 9,0 11 6 O - 10 -
19.11.2019 11:00:00 18,0 10,0 15 8 O - 10 -
19.11.2019 10:00:00 16,8 11,2 5 3 ONO 1015,5 10 0,0
19.11.2019 09:00:00 17,0 12,0 15 8 O - 10 -
19.11.2019 08:00:00 16,0 12,0 13 7 O - 10 -
19.11.2019 07:00:00 15,9 12,2 8 4 ONO 1014,7 7 -
19.11.2019 06:00:00 - - - - - - - -
19.11.2019 05:00:00 19,0 9,0 18 10 SSO - 10 -
19.11.2019 04:00:00 18,5 9,6 18 10 SSO 1014,9 10 0,0
19.11.2019 03:00:00 19,0 10,0 26 14 S - 10 -
19.11.2019 02:00:00 19,0 11,0 29 16 SSO - 10 -
19.11.2019 01:00:00 18,4 10,5 29 16 S 1016,0 10 -
19.11.2019 00:00:00 18,0 11,0 29 16 S - 10 -
18.11.2019 23:00:00 18,0 10,0 28 15 S - 10 -
18.11.2019 22:00:00 18,0 11,0 28 15 S - 10 -
18.11.2019 21:00:00 18,0 10,0 29 16 S - 10 -
18.11.2019 20:00:00 18,0 10,0 26 14 S - 10 -
18.11.2019 19:00:00 17,7 9,5 26 14 S 1016,5 10 -
18.11.2019 18:00:00 18,0 11,0 28 15 S - 10 -
18.11.2019 17:00:00 18,0 10,0 26 14 S - 10 -
18.11.2019 16:00:00 17,9 9,8 24 13 S 1016,6 10 0,0
18.11.2019 15:00:00 18,0 10,0 28 15 SSO - 10 -
18.11.2019 14:00:00 18,0 10,0 28 15 SSO - 10 -
18.11.2019 13:00:00 18,6 9,5 26 14 SSO 1017,1 10 -
18.11.2019 12:00:00 18,0 10,0 26 14 SO - 10 -
18.11.2019 11:00:00 19,0 10,0 16 9 SSO - 10 -
18.11.2019 10:00:00 18,1 9,6 18 10 SSO 1018,6 10 0,0
18.11.2019 09:00:00 17,0 10,0 16 9 SO - 10 -
18.11.2019 08:00:00 17,0 10,0 13 7 SO - 10 -
18.11.2019 07:00:00 16,8 8,6 11 6 SO 1017,9 10 -
18.11.2019 06:00:00 16,0 8,0 2 1 - - 10 -
18.11.2019 05:00:00 16,0 7,0 4 2 NNO - 10 -
18.11.2019 04:00:00 15,8 7,2 5 3 NO 1017,4 10 0,0
18.11.2019 03:00:00 16,0 8,0 8 4 NO - 10 -
18.11.2019 02:00:00 16,0 8,0 11 6 NO - 10 -
18.11.2019 01:00:00 14,9 7,5 8 4 ONO 1017,7 10 -
18.11.2019 00:00:00 16,0 8,0 8 4 ONO - 10 -
17.11.2019 23:00:00 16,0 8,0 11 6 ONO - 10 -
17.11.2019 22:00:00 16,4 8,6 15 8 NO 1017,2 10 0,0
17.11.2019 21:00:00 17,0 9,0 21 11 NO - 10 -
17.11.2019 20:00:00 17,0 9,0 21 11 NO - 10 -
17.11.2019 19:00:00 16,7 8,8 16 9 NO 1016,4 10 -
17.11.2019 18:00:00 16,0 9,0 18 10 ONO - 10 -
17.11.2019 17:00:00 16,0 9,0 18 10 ONO - 10 -
17.11.2019 16:00:00 16,7 9,9 24 13 ONO 1014,2 10 0,0
17.11.2019 15:00:00 16,0 11,0 24 13 ONO - 10 -
17.11.2019 14:00:00 15,0 11,0 31 17 ONO - 8 -
17.11.2019 13:00:00 16,4 8,9 22 12 ONO 1012,5 10 -
17.11.2019 12:00:00 17,0 8,0 28 15 O - 10 -
17.11.2019 11:00:00 16,0 8,0 26 14 O - 10 -
17.11.2019 10:00:00 15,3 7,7 22 12 O 1011,9 10 0,0
17.11.2019 09:00:00 - - - - - - - -
17.11.2019 08:00:00 15,0 8,0 31 17 O - 10 -
17.11.2019 07:00:00 16,0 8,4 28 15 O 1009,3 10 -
17.11.2019 06:00:00 17,0 8,0 24 13 OSO - 10 -
17.11.2019 05:00:00 18,0 8,0 26 14 OSO - 10 -
17.11.2019 04:00:00 18,0 7,6 26 14 OSO 1007,4 10 0,0
17.11.2019 03:00:00 19,0 5,0 29 16 OSO - 10 -
17.11.2019 02:00:00 19,0 6,0 24 13 OSO - 10 -
17.11.2019 01:00:00 19,0 10,0 26 14 OSO - 9 -
17.11.2019 00:00:00 20,0 12,0 26 14 SO - 8 -
16.11.2019 23:00:00 21,0 14,0 26 14 SO - 7 -
16.11.2019 22:00:00 21,4 16,0 29 16 S 1005,6 10 0,0
16.11.2019 21:00:00 22,0 15,0 54 29 SSE - 8 -
16.11.2019 20:00:00 22,0 15,0 52 28 SSE - 10 -
16.11.2019 19:00:00 21,4 15,8 48 26 SE 1004,8 8 -
16.11.2019 18:00:00 21,0 16,0 42 23 SE - 8 -
16.11.2019 17:00:00 21,0 16,0 42 23 SE - 10 -
16.11.2019 16:00:00 21,3 15,7 41 22 SSE 1005,3 10 0,0
16.11.2019 15:00:00 22,0 16,0 39 21 SSE - 10 -
16.11.2019 14:00:00 22,0 16,0 37 20 SSE - 10 -
16.11.2019 13:00:00 22,0 15,8 39 21 SSE 1006,9 10 -
16.11.2019 12:00:00 22,0 15,0 41 22 SSE - 10 -
16.11.2019 11:00:00 22,0 16,0 37 20 SSE - 10 -
16.11.2019 10:00:00 21,8 16,0 35 19 SSE 1009,5 10 0,0
16.11.2019 09:00:00 21,0 16,0 35 19 SSE - 10 -
16.11.2019 08:00:00 21,0 16,0 28 15 SSE - 8 -

tt = Temperatura
td = dewpoint
ff = velocità del vento
dd = direzione del vento
ppp = reduced air pressure
vv = visibility
rr = precipitazioni

Stazioni seguenti

WeatherPro
AMSI
MeteoEarth